EW4496 Weather Reports


time (UTC)temp
C
wind
direction
speed
KPH
gust
KPH
rain 1hr
cm
rain 24hr
cm
rain mn
cm
humidity
%
barometer
mb
20260509231541 32 6 0.0 4.8 0.00 0.00 0.00 34 1010.1
20260509230053 31 331 0.0 0.0 0.00 0.00 0.00 36 1010.2
20260509224550 31 20 0.0 1.6 0.00 0.00 0.00 33 1010.4
20260509223053 31 18 0.0 4.8 0.00 0.00 0.00 36 1010.6
20260509221550 31 314 1.6 9.7 0.00 0.00 0.00 36 1010.8
20260509220051 30 359 0.0 4.8 0.00 0.00 0.00 39 1010.9
20260509214550 30 357 0.0 6.4 0.00 0.00 0.00 38 1011.0
20260509213105 30 308 0.0 6.4 0.00 0.00 0.00 40 1011.3
20260509211557 30 11 0.0 3.2 0.00 0.00 0.00 44 1011.4
20260509210052 29 338 0.0 4.8 0.00 0.00 0.00 48 1011.5
20260509204549 28 19 0.0 1.6 0.00 0.00 0.00 50 1011.7
20260509203050 29 56 0.0 8.0 0.00 0.00 0.00 49 1011.9
20260509201550 28 199 0.0 6.4 0.00 0.00 0.00 53 1012.0
20260509200053 28 232 0.0 3.2 0.00 0.00 0.00 52 1012.1
20260509194557 27 322 0.0 6.4 0.00 0.00 0.00 53 1012.3
20260509193050 26 305 0.0 0.0 0.00 0.00 0.00 56 1012.5
20260509191604 26 189 0.0 3.2 0.00 0.00 0.00 55 1012.7
20260509190050 26 94 0.0 3.2 0.00 0.00 0.00 55 1013.0
20260509184558 25 182 0.0 3.2 0.00 0.00 0.00 57 1013.2
20260509183054 24 299 0.0 3.2 0.00 0.00 0.00 60 1013.3
20260509181553 24 335 0.0 1.6 0.00 0.00 0.00 60 1013.4
20260509180058 23 5 0.0 1.6 0.00 0.00 0.00 61 1013.5
20260509174549 22 311 0.0 1.6 0.00 0.00 0.00 63 1013.5
20260509173102 22 303 0.0 3.2 0.00 0.00 0.00 63 1013.5
20260509171550 21 307 0.0 1.6 0.00 0.00 0.00 65 1013.5
20260509170049 21 219 0.0 0.0 0.00 0.00 0.00 67 1013.7
20260509164548 20 292 0.0 0.0 0.00 0.00 0.00 69 1013.6
20260509163052 20 318 0.0 1.6 0.00 0.00 0.00 69 1013.7
20260509161558 19 176 0.0 0.0 0.00 0.00 0.00 70 1013.7
20260509160021 18 335 0.0 0.0 0.00 0.00 0.00 73 1013.8
20260509154518 17 192 0.0 0.0 0.00 0.00 0.00 74 1013.7
20260509153031 17 216 0.0 0.0 0.00 0.00 0.00 75 1013.7
20260509151518 16 236 0.0 1.6 0.00 0.00 0.00 76 1013.6
20260509150020 16 294 0.0 1.6 0.00 0.00 0.00 78 1013.7
20260509144518 16 298 0.0 1.6 0.00 0.00 0.00 79 1013.8
20260509143019 15 244 0.0 0.0 0.00 0.00 0.00 81 1013.7
20260509141524 14 240 0.0 0.0 0.00 0.00 0.00 83 1013.6
20260509140018 13 217 0.0 0.0 0.00 0.00 0.00 86 1013.6
20260509134533 12 269 0.0 0.0 0.00 0.00 0.00 88 1013.6
20260509133035 12 270 0.0 0.0 0.00 0.00 0.00 90 1013.6
20260509131533 12 271 0.0 0.0 0.00 0.00 0.00 89 1013.4
20260509130034 12 273 0.0 0.0 0.00 0.00 0.00 90 1013.4
20260509124552 11 273 0.0 0.0 0.00 0.00 0.00 90 1013.2
20260509123048 11 273 0.0 0.0 0.00 0.00 0.00 91 1013.1
20260509121550 11 273 0.0 0.0 0.00 0.00 0.00 92 1013.1
20260509120050 11 273 0.0 0.0 0.00 0.00 0.00 91 1013.2
20260509114602 11 273 0.0 0.0 0.00 0.00 0.00 91 1013.2
20260509113102 12 250 0.0 0.0 0.00 0.00 0.00 90 1013.1
20260509111603 12 250 0.0 0.0 0.00 0.00 0.00 89 1013.1
20260509104504 12 198 0.0 0.0 0.00 0.00 0.00 88 1013.0
20260509103004 12 228 0.0 0.0 0.00 0.00 0.00 88 1013.0
20260509101505 13 232 0.0 0.0 0.00 0.00 0.00 88 1013.2
20260509100002 13 227 0.0 0.0 0.00 0.00 0.00 87 1013.2
20260509094517 13 225 0.0 0.0 0.00 0.00 0.00 87 1013.2
20260509093017 13 225 0.0 0.0 0.00 0.00 0.00 88 1013.2
20260509091519 13 224 0.0 0.0 0.00 0.00 0.00 88 1013.3
20260509090028 14 224 0.0 0.0 0.00 0.00 0.00 87 1013.3
20260509084527 13 241 0.0 0.0 0.00 0.00 0.00 88 1013.4
20260509083032 13 241 0.0 0.0 0.00 0.00 0.00 88 1013.5
20260509081531 14 241 0.0 0.0 0.00 0.00 0.00 86 1013.6
20260509080035 14 241 0.0 0.0 0.00 0.00 0.00 86 1013.6
20260509074536 14 241 0.0 0.0 0.00 0.00 0.00 86 1013.7
20260509073103 14 241 0.0 0.0 0.00 0.00 0.00 86 1013.7
20260509071555 14 241 0.0 0.0 0.00 0.00 0.00 86 1013.5
20260509070048 15 235 0.0 0.0 0.00 0.00 0.00 86 1013.4
20260509064546 15 238 0.0 0.0 0.00 0.00 0.00 85 1013.5
20260509063105 16 235 0.0 0.0 0.00 0.00 0.00 84 1013.5
20260509061601 16 233 0.0 0.0 0.00 0.00 0.00 84 1013.6
20260509060118 16 179 0.0 0.0 0.00 0.00 0.00 84 1013.6
20260509054601 17 256 0.0 0.0 0.00 0.00 0.00 82 1013.5
20260509053118 17 223 0.0 0.0 0.00 0.00 0.00 80 1013.5
20260509051613 17 328 0.0 0.0 0.00 0.00 0.00 80 1013.4
20260509050107 17 328 0.0 0.0 0.00 0.00 0.00 78 1013.4
20260509044608 18 327 0.0 0.0 0.00 0.00 0.00 78 1013.3
20260509043101 19 327 0.0 0.0 0.00 0.00 0.00 77 1013.2
20260509041601 20 328 0.0 0.0 0.00 0.00 0.00 74 1013.1
20260509040110 20 336 0.0 1.6 0.00 0.00 0.00 72 1012.8
20260509034605 20 337 0.0 0.0 0.00 0.00 0.00 72 1012.7
20260509033134 21 319 0.0 0.0 0.00 0.00 0.00 69 1012.7
20260509031600 22 322 0.0 1.6 0.00 0.00 0.00 66 1012.7
20260509030100 23 307 0.0 0.0 0.00 0.00 0.00 62 1012.6
20260509024608 25 307 0.0 1.6 0.00 0.00 0.00 61 1012.4
20260509023100 25 292 0.0 4.8 0.00 0.00 0.00 58 1012.3
20260509021600 27 309 0.0 3.2 0.00 0.00 0.00 55 1012.3
20260509020112 27 312 0.0 4.8 0.00 0.00 0.00 52 1012.1
20260509014615 27 319 0.0 4.8 0.00 0.00 0.00 51 1012.4
20260509013115 28 335 0.0 6.4 0.00 0.00 0.00 49 1012.4
20260509011616 28 344 0.0 6.4 0.00 0.00 0.00 49 1012.4
20260509010115 30 351 0.0 3.2 0.00 0.00 0.00 47 1012.4
20260509004614 30 319 0.0 1.6 0.00 0.00 0.00 44 1012.5
20260509003016 30 330 0.0 4.8 0.00 0.00 0.00 39 1012.6
20260509001514 30 292 0.0 0.0 0.00 0.00 0.00 40 1012.8
20260509000014 30 356 0.0 4.8 0.00 0.00 0.00 40 1012.8
20260508234514 30 305 0.0 0.0 0.00 0.00 0.00 41 1013.0